Location: Dompnac
(44.5644°N, 4.1026°E)
Time: 02:55:30
(UTC+00:00)

USA 234 - Pass Details

Date: 19 January 2021
Orbit: 1100 x 1107 km, 123.0° (Epoch: 01 March)

Event Time Altitude Azimuth Distance (km) Brightness Sun altitude
Exits shadow 21:12:08 19° 298° (WNW) 2,350 5.4 -48.5°
Drops below altitude 10° 21:13:50 10° 304° (WNW) 2,964 6.0 -48.8°
Sets 21:16:23 0° 308° (NW) 3,926 6.8 -49.2°
